Regional Weather Roundup
Issued by NWS

Home | Current Version | Previous Version | Text Only | Print | Product List | Glossary On
Versions: 1 2 3 4 5 6 7 8 9 10 11 12 13 14 15 16 17 18 19 20 21 22 23 24 25 26 27 28 29 30 31 32 33 34 35 36 37 38 39 40 41 42 43 44 45 46 47 48 49 50
000
ASUS44 KOUN 121910
RWROK

WEATHER ROUNDUP FOR OKLAHOMA
NATIONAL WEATHER SERVICE NORMAN OK
100 PM CST FRI FEB 12 2016

NOTE: "FAIR" INDICATES FEW OR NO CLOUDS BELOW 12,000 FEET WITH NO
      SIGNIFICANT WEATHER AND/OR OBSTRUCTIONS TO VISIBILITY.

OKZ001>007-009>012-014-015-017-122000-
NORTHWEST OKLAHOMA AND THE PANHANDLE

CITY           SKY/WX    TMP DP  RH WIND       PRES   REMARKS
GAGE           SUNNY     58  32  37 E9        30.36F
GUYMON         SUNNY     56  30  37 SE7       30.35F
ENID/WOODRING  MOSUNNY   48  34  57 N12       30.40S
$$

OKZ016-021>023-033>039-044-045-122000-
SOUTHWEST OKLAHOMA

CITY           SKY/WX    TMP DP  RH WIND       PRES   REMARKS
LAWTON/REGL    SUNNY     64  37  36 NE13      30.33F
LAWTON/FT SILL SUNNY     64  37  36 E10       30.32
FREDERICK      SUNNY     64  39  39 E12       30.30F
CLINTON        SUNNY     60  34  37 NE16      30.37S
HOBART         SUNNY     61  36  39 E14       30.35F
ALTUS AFB      SUNNY     62  35  36 NE13G18   30.33
$$

OKZ018>020-024>031-122000-
CENTRAL OKLAHOMA

CITY           SKY/WX    TMP DP  RH WIND       PRES   REMARKS
OKLAHOMA CITY  MOSUNNY   57  34  41 N13       30.36S
OKC/WILEY POST SUNNY     56  34  43 N12       30.37S
OKC/TINKER AFB SUNNY     59  33  37 N9        30.34
STILLWATER     SUNNY     53  31  42 NE9       30.38F
GUTHRIE        SUNNY     54  31  41 N9        30.38S
$$

OKZ008-013-054>072-122000-
NORTHEAST OKLAHOMA

CITY           SKY/WX    TMP DP  RH WIND       PRES   REMARKS
TULSA          PTSUNNY   50  30  46 N14       30.37F
TULSA/JONES    SUNNY     50  29  44 NE13G21   30.38F
PONCA CITY       N/A     47  29  49 MISG      30.40
BARTLESVILLE   CLOUDY    46  26  45 NE12G21   30.42S
MUSKOGEE       SUNNY     54  31  41 N17G23    30.36F
$$

OKZ032-040>043-046>053-073>077-122000-
SOUTH CENTRAL/SOUTHEAST OKLAHOMA

CITY           SKY/WX    TMP DP  RH WIND       PRES   REMARKS
ARDMORE/DWNTWN SUNNY     63  32  31 NE8       30.30F
MCALESTER      MOSUNNY   59  31  34 NE12G17   30.33F
$$




USA.gov is the U.S. government's official web portal to all federal, state and local government web resources and services.